User: anonymous   Login
Location: El Mouella
(16.4949°N, 9.1594°W)
Time: 12:10:30
(UTC+00:00)
Language:

CZ-2C R/B - Orbit

View from above orbital plane
View from above orbital plane
View from above satellite
View from above satellite

Ground track
Ground track

The orbit data is extracted from the following two-line orbital elements,

1 31114U 07010B   20226.82998862 -.00000066 +00000-0 -12630-4 0  9992
2 31114 098.2560 075.8362 0060882 099.6453 261.1610 14.19326441691146
Epoch (UTC): 13 August 2020 19:55:11
Eccentricity: 0.0060882
inclination: 98.2560°
perigee height: 784 km
apogee height: 871 km
right ascension of ascending node: 75.8362°
argument of perigee: 99.6453°
revolutions per day: 14.19326441
mean anomaly at epoch: 261.1610°
orbit number at epoch: 69114

The dashed part of the orbit path shows where the satellite is in the earth's shadow,  

DLR